Home   Weather   Sarnen   Past weeks

Flag for Switzerland Past Weather in Sarnen, Obwalden, Switzerland — Yesterday and Last 2 Weeks

Now
21 °F

Cold.


Feels Like: 17 °F
Forecast: 9 / 32 °F
Wind: 3 mph from Southwest

Location: Giswil

Current Time: Jan 24, 2017 at 12:09:23 pm

Latest Report: Jan 24, 2017 at 11:00 am


Visibility: N/A

Pressure: 30.39 "Hg

Humidity: 89%

Dew Point: 19 °F

Location of SarnenLocation

Past Weather in Sarnen — Graph

°F

Sarnen Temperature Yesterday

Maximum temperature yesterday: 23 °F (at 4:00 pm)
Minimum temperature yesterday: 19 °F (at 5:00 am)
Average temperature yesterday: 21 °F

High & Low Weather Summary for the Past Weeks

 TemperatureHumidityPressure
High45 °F (Jan 13, 1:00 am)100% (Jan 11, 11:00 pm)30.56 "Hg (Jan 11, 11:00 pm)
Low18 °F (Jan 10, 3:00 am)49% (Jan 11, 5:00 pm)29.50 "Hg (Jan 13, 1:00 am)
Average27 °F89%30.25 "Hg
* Reported Jan 9 10:00 am — Jan 24 10:00 am, Sarnen, Weather by CustomWeather, © 2017

Note: Actual official high and low records may vary slightly from our data, if they occured in-between our weather recording intervals... More about our weather records

Advertising

Sarnen Weather History for the Previous 24 Hours

Scroll right to see more
 ConditionsComfort  
Time TempWeatherWind HumidityBarometerVisibility
10:00 am
Tue, Jan 24
21 °FCold.1 mph91%30.38 "HgN/A
9:00 am20 °FCold.3 mph99%30.37 "HgN/A
8:00 am20 °FCold.3 mph99%30.37 "HgN/A
7:00 am20 °FCold.5 mph99%30.36 "HgN/A
6:00 am20 °FCold.3 mph99%30.34 "HgN/A
5:00 am20 °FCold.2 mph99%30.34 "HgN/A
4:00 am21 °FCold.3 mph99%30.34 "HgN/A
3:00 am21 °FCold.2 mph99%30.34 "HgN/A
2:00 am21 °FCold.No wind99%30.34 "HgN/A
1:00 am21 °FCold.5 mph99%30.34 "HgN/A
12:00 am21 °FCold.1 mph99%30.32 "HgN/A
11:00 pm
Mon, Jan 23
22 °FCold.2 mph99%30.31 "HgN/A
10:00 pm21 °FCold.5 mph99%30.33 "HgN/A
9:00 pm22 °FCold.2 mph100%30.32 "HgN/A
8:00 pm22 °FCold.3 mph99%30.32 "HgN/A
7:00 pm22 °FCold.3 mph99%30.33 "HgN/A
6:00 pm22 °FCold.3 mph99%30.32 "HgN/A
5:00 pm22 °FCold.3 mph99%30.30 "HgN/A
4:00 pm23 °FCold.1 mph99%30.30 "HgN/A
3:00 pm23 °FCold.1 mph100%30.29 "HgN/A
2:00 pm22 °FCold.2 mph99%30.30 "HgN/A
1:00 pm22 °FCold.1 mph99%30.32 "HgN/A
12:00 pm21 °FCold.1 mph100%30.34 "HgN/A
Weather by CustomWeather, © 2017

See weather overviewHow to use our weather pages